Weather History for Detroit, MI

Change the Weather History Date:

Saturday, August 4, 2012

  Actual Average Record
Temperature  
Mean Temperature 81 °F -  
Max Temperature 91 °F 81 °F 97 °F (1955)
Min Temperature 73 °F 65 °F 53 °F (1951)
Cooling Degree Days 16    
Growing Degree Days 31 (Base 50)    
Moisture  
Dew Point 70 °F    
Average Humidity 72    
Maximum Humidity 87    
Minimum Humidity 53    
Precipitation  
Precipitation 0.22 in - - ()
Sea Level Pressure  
Sea Level Pressure 29.93 in    
Wind  
Wind Speed 5 mph (South)    
Max Wind Speed 16 mph    
Max Gust Speed 34 mph    
Visibility 9 miles    
Events Rain    
Averages and records for this station are not official NWS values.
T = Trace of Precipitation, MM = Missing Value Source: NWS Daily Summary

Daily Weather History Graph

Daily Weather History Graph

Search for Another Location

Airport:

Trip Planner

Search our weather history database for the weather conditions in past years. The results will help you decide how hot, cold, wet, or windy it might be!

Date:

Astronomy

Aug. 04, 2012 Rise Set
Actual Time 6:28 AM EDT 8:47 PM EDT
Civil Twilight 5:56 AM EDT 9:18 PM EDT
Nautical Twilight 5:17 AM EDT 9:57 PM EDT
Astronomical Twilight 4:34 AM EDT 10:40 PM EDT
Moon 9:50 PM EDT (8/4) 9:18 AM EDT (8/4)
Length of Visible Light 15h 22m
Length of Day
14h 19m
Waning Gibbous, 92% of the Moon is Illuminated
Aug 4
Waning Gibbous
Aug 9
Last Quarter
Aug 17
New
Aug 24
First Quarter
Aug 31
Full

Hourly Weather History & Observations

Time (EDT) Temp. Heat Index Dew Point Humidity Pressure Visibility Wind Dir Wind Speed Gust Speed Precip Events Conditions
12:53 AM 77.0 °F - 66.9 °F 71% 29.95 in 10.0 mi Calm Calm - N/A   Clear
1:53 AM 75.9 °F - 66.0 °F 71% 29.96 in 10.0 mi Calm Calm - N/A   Clear
2:53 AM 75.0 °F - 66.9 °F 76% 29.96 in 10.0 mi Calm Calm - N/A   Clear
3:53 AM 73.9 °F - 66.9 °F 79% 29.96 in 10.0 mi Calm Calm - N/A   Clear
4:53 AM 73.9 °F - 66.9 °F 79% 29.96 in 10.0 mi Calm Calm - N/A   Clear
5:53 AM 73.0 °F - 69.1 °F 87% 29.97 in 9.0 mi South 3.5 mph - N/A   Clear
6:53 AM 75.0 °F - 70.0 °F 84% 29.99 in 8.0 mi SSW 4.6 mph - N/A   Clear
7:53 AM 77.0 °F - 71.1 °F 82% 30.00 in 10.0 mi Calm Calm - N/A   Clear
8:53 AM 80.1 °F 83.2 °F 70.0 °F 71% 29.99 in 10.0 mi SE 3.5 mph - N/A   Clear
9:53 AM 82.9 °F 87.0 °F 70.0 °F 65% 29.98 in 10.0 mi South 6.9 mph - N/A   Clear
10:53 AM 82.9 °F 86.5 °F 69.1 °F 63% 29.99 in 10.0 mi South 10.4 mph - N/A   Scattered Clouds
11:53 AM 84.9 °F 89.4 °F 70.0 °F 61% 29.97 in 10.0 mi SSW 11.5 mph - N/A   Clear
12:53 PM 87.1 °F 92.8 °F 71.1 °F 59% 29.97 in 10.0 mi SSE 13.8 mph 18.4 mph N/A   Scattered Clouds
1:53 PM 87.8 °F 93.8 °F 71.6 °F 58% 29.95 in 10.0 mi SSW 9.2 mph 19.6 mph N/A   Partly Cloudy
2:53 PM 88.0 °F 93.8 °F 71.1 °F 57% 29.93 in 10.0 mi South 15.0 mph 23.0 mph N/A   Mostly Cloudy
3:53 PM 89.1 °F 94.1 °F 70.0 °F 53% 29.90 in 10.0 mi SSW 16.1 mph 23.0 mph N/A   Scattered Clouds
4:53 PM 88.0 °F 92.9 °F 70.0 °F 55% 29.88 in 10.0 mi South 15.0 mph - N/A   Scattered Clouds
5:53 PM 89.1 °F 95.0 °F 71.1 °F 55% 29.86 in 10.0 mi South 12.7 mph - N/A   Partly Cloudy
6:53 PM 88.0 °F 94.7 °F 72.0 °F 59% 29.89 in 10.0 mi SSW 10.4 mph - N/A   Partly Cloudy
7:44 PM 78.8 °F - 71.6 °F 78% 29.91 in 1.8 mi SW 15.0 mph 34.5 mph 0.10 in Rain Heavy Rain
7:53 PM 75.9 °F - 72.0 °F 87% 29.89 in 1.8 mi South 5.8 mph - 0.17 in Rain Light Rain
7:57 PM 77.0 °F - 71.6 °F 83% 29.89 in 4.0 mi SSE 4.6 mph - 0.00 in Rain Light Rain
8:53 PM 78.1 °F - 73.9 °F 87% 29.86 in 10.0 mi ESE 4.6 mph - 0.00 in   Partly Cloudy
9:53 PM 79.0 °F - 73.9 °F 84% 29.86 in 10.0 mi SSE 6.9 mph - N/A   Scattered Clouds
10:53 PM 77.0 °F - 68.0 °F 74% 29.85 in 10.0 mi SW 10.4 mph 21.9 mph 0.00 in Rain Light Rain
11:53 PM 73.9 °F - 69.1 °F 85% 29.85 in 10.0 mi SSW 10.4 mph - 0.05 in Rain Light Rain